This is the latest recevied weather packets stored in our database for station/object KSUZ. If no packets are shown the sender has not sent any weather packets the latest 10 day(s).
| Time | Temp. | Humidity | Pressure | Rain* | Wind** | Luminosity | Snow |
|---|---|---|---|---|---|---|---|
| 1777554219 | 13.89° C | 71% | 1016.9 hPa | - | - | - | - |
| 1777553623 | 12.78° C | 76% | 1017.3 hPa | - | - | - | - |
| 1777553023 | 12.78° C | 76% | 1017.3 hPa | - | - | - | - |
| 1777552424 | 11.67° C | 81% | 1016.9 hPa | - | - | - | - |
| 1777551823 | 11.67° C | 81% | 1016.9 hPa | - | - | - | - |
| 1777551222 | 11.67° C | 81% | 1016.9 hPa | - | - | - | - |
| 1777550626 | 11.67° C | 81% | 1016.9 hPa | - | - | - | - |
| 1777550024 | 11.67° C | 81% | 1016.6 hPa | - | - | - | - |
| 1777549425 | 11.67° C | 81% | 1016.6 hPa | - | - | - | - |
| 1777548824 | 11.67° C | 81% | 1016.9 hPa | - | - | - | - |
| 1777548224 | 11.67° C | 81% | 1016.9 hPa | - | - | - | - |
| 1777547619 | 12.78° C | 76% | 1016.6 hPa | - | - | - | - |
| 1777547023 | 12.78° C | 76% | 1016.6 hPa | - | - | - | - |
| 1777546423 | 12.78° C | 76% | 1016.6 hPa | - | - | - | - |
| 1777545827 | 12.78° C | 76% | 1016.6 hPa | - | - | - | - |
| 1777545223 | 10.56° C | 93% | 1016.3 hPa | - | - | - | - |
| 1777544627 | 10.56° C | 93% | 1016.3 hPa | - | - | - | - |
| 1777544024 | 11.67° C | 87% | 1016.3 hPa | - | - | - | - |
| 1777543543 | 11.67° C | 87% | 1016.3 hPa | - | - | - | - |
| 1777542823 | 12.78° C | 82% | 1016.3 hPa | - | - | - | - |
| 1777542224 | 12.78° C | 82% | 1016.3 hPa | - | - | - | - |
| 1777541627 | 12.78° C | 82% | 1016.3 hPa | - | - | - | - |
| 1777541020 | 12.78° C | 82% | 1016.3 hPa | - | - | - | - |
| 1777540421 | 11.67° C | 93% | 1015.9 hPa | - | - | - | - |
| 1777539829 | 11.67° C | 93% | 1015.9 hPa | - | - | - | - |
* Rain since midnight (hover to see other rain measurements)
** Current wind speed in m/s (hover to see current wind gust speed)